FW3284 Weather Reports


Display with metric or nautical units.
time (UTC)temp
F
wind
direction
speed
MPH
gust
MPH
rain 1hr
in
rain 24hr
in
rain mn
in
humidity
%
barometer
mb
20260506131506 45 308 0.0 0.0 0.00 0.12 0.02 90 1017.9
20260506130052 44 333 0.0 0.0 0.00 0.12 0.02 91 1018.0
20260506124528 44 326 0.0 0.0 0.00 0.12 0.02 91 1018.1
20260506123009 44 313 0.0 0.0 0.00 0.12 0.02 91 1018.1
20260506121549 44 338 0.0 0.0 0.00 0.12 0.02 92 1017.7
20260506120031 44 305 0.0 0.0 0.00 0.12 0.02 92 1017.5
20260506114509 43 319 0.0 0.0 0.00 0.12 0.02 93 1017.3
20260506113043 43 320 0.0 0.0 0.00 0.12 0.02 94 1016.8
20260506111526 43 333 0.0 0.0 0.00 0.12 0.02 94 1016.4
20260506110057 43 322 0.0 0.0 0.01 0.12 0.02 94 1016.2
20260506110006 43 323 0.0 0.0 0.01 0.12 0.02 94 1016.3
20260506104543 43 330 0.0 0.0 0.01 0.12 0.02 94 1016.1
20260506103022 43 317 0.0 0.0 0.02 0.12 0.02 94 1015.8
20260506101557 43 309 0.0 0.0 0.02 0.12 0.02 94 1015.7
20260506100040 43 316 0.0 0.0 0.01 0.11 0.01 93 1015.7
20260506094515 43 347 0.0 1.0 0.01 0.11 0.01 93 1015.3
20260506093112 43 322 0.0 0.0 0.00 0.10 0.00 93 1015.3
20260506091527 43 321 0.0 1.0 0.00 0.10 0.00 93 1014.8
20260506090008 43 353 0.0 0.0 0.00 0.11 0.00 92 1014.1
20260506084550 43 358 0.0 1.0 0.00 0.11 0.00 92 1013.8
20260506083034 43 35 0.0 1.0 0.00 0.11 0.00 92 1013.2
20260506081512 43 41 0.0 7.0 0.00 0.11 0.00 93 1012.9
20260506073010 43 353 0.0 0.0 0.00 0.11 0.00 93 1014.1
20260506071551 43 323 0.0 0.0 0.00 0.11 0.00 93 1014.5
20260506061542 43 55 0.0 0.0 0.00 0.11 0.00 93 1014.2
20260506044515 43 5 1.0 4.0 0.00 0.11 0.11 92 1013.1
20260506043052 43 77 0.0 2.0 0.00 0.11 0.11 91 1012.5
20260506041524 43 54 0.0 1.0 0.00 0.11 0.11 90 1012.9
20260506040017 43 40 2.0 5.0 0.00 0.11 0.11 90 1013.1
20260506034602 43 18 0.0 1.0 0.00 0.11 0.11 90 1012.8
20260506033039 43 31 0.0 2.0 0.00 0.11 0.11 92 1013.1
20260506031513 43 15 2.0 11.0 0.00 0.11 0.11 93 1012.5
20260506030055 43 32 3.0 9.0 0.01 0.11 0.11 93 1012.1
20260506024525 44 24 0.0 2.0 0.02 0.11 0.11 94 1011.9
20260506023008 44 25 0.0 2.0 0.04 0.11 0.11 94 1011.8
20260506021549 44 40 0.0 1.0 0.06 0.11 0.11 94 1011.7
20260506020100 44 27 0.0 7.0 0.05 0.10 0.10 93 1011.5
20260506014514 44 57 5.0 10.0 0.04 0.09 0.09 93 1011.1
20260506013036 44 24 0.0 11.0 0.03 0.07 0.08 92 1010.9
20260506011517 44 23 0.0 2.0 0.01 0.05 0.05 92 1011.0
20260506010055 44 51 0.0 5.0 0.02 0.05 0.05 92 1010.8
20260506004541 44 34 0.0 11.0 0.02 0.05 0.05 92 1010.5
20260506003018 44 27 6.0 11.0 0.02 0.04 0.04 91 1010.3
20260506001606 44 29 8.0 13.0 0.02 0.04 0.04 90 1010.1
20260506000051 44 22 1.0 11.0 0.01 0.03 0.03 91 1009.9
20260505234522 44 39 9.0 17.0 0.02 0.03 0.03 89 1009.8
20260505233101 44 30 0.0 3.0 0.01 0.02 0.02 92 1009.7
20260505231538 45 32 0.0 10.0 0.01 0.02 0.02 93 1009.4
20260505230031 45 6 0.0 2.0 0.01 0.02 0.02 92 1009.4
20260505224557 45 42 0.0 12.0 0.00 0.01 0.01 92 1009.6
20260505223042 45 37 0.0 2.0 0.00 0.01 0.01 92 1009.4
20260505221519 46 36 0.0 6.0 0.00 0.01 0.01 91 1009.0
20260505220107 46 1 1.0 9.0 0.00 0.01 0.01 90 1009.3
20260505214544 47 49 5.0 10.0 0.00 0.01 0.01 88 1009.1
20260505213013 47 354 0.0 11.0 0.00 0.01 0.01 89 1009.0
20260505211631 47 15 0.0 7.0 0.00 0.01 0.01 88 1008.8
20260505210038 48 34 9.0 16.0 0.00 0.01 0.01 84 1008.7
20260505204508 48 28 0.0 15.0 0.00 0.01 0.01 82 1009.1
20260505203047 48 14 0.0 13.0 0.00 0.01 0.01 83 1008.7
20260505201536 48 35 11.0 16.0 0.00 0.01 0.01 82 1008.4
20260505200015 48 27 10.0 16.0 0.00 0.01 0.01 82 1008.6
20260505194549 49 18 4.0 11.0 0.00 0.01 0.01 81 1008.7
20260505193032 49 18 9.0 16.0 0.00 0.01 0.01 78 1008.7
20260505191513 50 12 8.0 16.0 0.00 0.01 0.01 80 1008.3
20260505190106 50 28 11.0 16.0 0.00 0.01 0.01 83 1008.4
20260505184539 50 34 7.0 16.0 0.00 0.01 0.01 83 1008.3
20260505183014 50 34 12.0 17.0 0.00 0.01 0.01 82 1008.1
20260505181606 51 34 11.0 16.0 0.00 0.01 0.01 81 1008.4
20260505180025 51 6 12.0 16.0 0.00 0.01 0.01 81 1008.3
20260505174549 52 37 1.0 6.0 0.00 0.01 0.01 83 1008.3
20260505173027 51 37 8.0 14.0 0.00 0.01 0.01 82 1008.4
20260505171517 52 49 8.0 16.0 0.00 0.01 0.01 81 1008.2
20260505170043 52 79 0.0 5.0 0.00 0.01 0.01 80 1007.9
20260505164527 52 36 9.0 15.0 0.00 0.01 0.01 81 1007.6
20260505163010 52 27 0.0 13.0 0.00 0.01 0.01 80 1007.9
20260505161552 52 359 9.0 15.0 0.00 0.01 0.01 81 1008.0
20260505153049 53 20 0.0 16.0 0.00 0.01 0.01 82 1007.5
20260505151534 53 31 12.0 16.0 0.00 0.01 0.01 80 1006.9